This is the latest recevied weather packets stored in our database for station/object DB0NH-2. If no packets are shown the sender has not sent any weather packets the latest 1 day(s).
| Time | Temp. | Humidity | Pressure | Rain* | Wind** | Luminosity | Snow |
|---|---|---|---|---|---|---|---|
| 1777961167 | 13.33° C | 84% | 1009.5 hPa | 0 mm | 1.34 m/s, 66° | 125 W/m² | - |
| 1777960567 | 13.33° C | 84% | 1009.5 hPa | 0 mm | 1.34 m/s, 77° | 107 W/m² | - |
| 1777959967 | 13.33° C | 84% | 1009.5 hPa | 0 mm | 1.34 m/s, 74° | 85 W/m² | - |
| 1777959367 | 12.78° C | 84% | 1009.6 hPa | 0 mm | 1.34 m/s, 64° | 75 W/m² | - |
| 1777958767 | 13.33° C | 84% | 1009.6 hPa | 0 mm | 1.34 m/s, 62° | 58 W/m² | - |
| 1777958167 | 13.33° C | 83% | 1009.4 hPa | 0 mm | 1.34 m/s, 79° | 66 W/m² | - |
| 1777957567 | 12.78° C | 84% | 1009.5 hPa | 0 mm | 0.45 m/s, 82° | 54 W/m² | - |
| 1777956967 | 12.78° C | 84% | 1009.5 hPa | 0 mm | 1.34 m/s, 64° | 42 W/m² | - |
| 1777956367 | 12.78° C | 83% | 1009.4 hPa | 0 mm | 1.34 m/s, 67° | 36 W/m² | - |
| 1777955767 | 12.78° C | 85% | 1009.4 hPa | 0 mm | 1.34 m/s, 64° | 27 W/m² | - |
| 1777955167 | 12.78° C | 85% | 1009.4 hPa | 0 mm | 1.34 m/s, 69° | 15 W/m² | - |
| 1777954567 | 12.78° C | 84% | 1009.5 hPa | 0 mm | 1.34 m/s, 58° | 6 W/m² | - |
| 1777953967 | 12.22° C | 87% | 1009.6 hPa | 0 mm | 1.34 m/s, 60° | 3 W/m² | - |
| 1777953367 | 12.22° C | 88% | 1009.7 hPa | 0 mm | 0.89 m/s, 56° | 1 W/m² | - |
| 1777952767 | 12.78° C | 86% | 1009.8 hPa | 0 mm | 0.89 m/s, 54° | 0 W/m² | - |
| 1777952167 | 12.78° C | 85% | 1009.9 hPa | 0 mm | 1.34 m/s, 62° | 0 W/m² | - |
| 1777951567 | 12.78° C | 84% | 1009.9 hPa | 0 mm | 1.34 m/s, 74° | 0 W/m² | - |
| 1777950967 | 12.78° C | 84% | 1010 hPa | 0 mm | 1.34 m/s, 71° | 0 W/m² | - |
| 1777950367 | 13.33° C | 82% | 1010.1 hPa | 0 mm | 1.34 m/s, 65° | 0 W/m² | - |
| 1777949767 | 13.33° C | 83% | 1010.3 hPa | 0 mm | 0.45 m/s, 76° | 0 W/m² | - |
| 1777949167 | 13.33° C | 83% | 1010.4 hPa | 0 mm | 0 m/s | 0 W/m² | - |
| 1777948567 | 12.78° C | 84% | 1010.5 hPa | 0.25 mm | 0.45 m/s, 93° | 0 W/m² | - |
| 1777947967 | 12.78° C | 84% | 1010.5 hPa | 1.27 mm | 1.34 m/s, 63° | 0 W/m² | - |
| 1777947367 | 12.78° C | 86% | 1010.5 hPa | 1.27 mm | 1.34 m/s, 76° | 0 W/m² | - |
| 1777946767 | 13.33° C | 84% | 1010.7 hPa | 1.27 mm | 0.89 m/s, 69° | 0 W/m² | - |
* Rain latest hour (hover to see other rain measurements)
** Current wind speed in m/s (hover to see current wind gust speed)